Location: Bonaustraße
(48.4603°N, 11.9280°E)
Time: 21:37:50
(UTC+02:00)

AO-92 - Pass Details

Date: 03 August 2021
Orbit: 484 x 494 km, 97.4° (Epoch: 17 September)

Event Time Altitude Azimuth Distance (km) Brightness Sun altitude
Exits shadow 22:04:08 14° 102° (ESE) 1,456 ? -11.3°
Maximum altitude 22:05:59 19° 65° (ENE) 1,203 ? -11.6°
Drops below altitude 10° 22:08:37 10° 18° (NNE) 1,678 ? -11.9°
Sets 22:11:05 0° 1° (N) 2,566 ? -12.2°
